This is the latest recevied weather packets stored in our database for station/object KO4FR. If no packets are shown the sender has not sent any weather packets the latest 10 day(s).
| Time | Temp. | Humidity | Pressure | Rain* | Wind** | Luminosity | Snow |
|---|---|---|---|---|---|---|---|
| 1777440912 | 15° C | 30% | 1016.4 hPa | 0 mm | - | - | - |
| 1777440612 | 15° C | 31% | 1016.5 hPa | 0 mm | - | - | - |
| 1777440312 | 15° C | 32% | 1016.6 hPa | 0 mm | - | - | - |
| 1777440012 | 15° C | 32% | 1016.7 hPa | 0 mm | - | - | - |
| 1777439712 | 15° C | 33% | 1016.9 hPa | 0 mm | - | - | - |
| 1777439412 | 15° C | 31% | 1017.2 hPa | 0 mm | - | - | - |
| 1777439112 | 15° C | 27% | 1017.2 hPa | 0 mm | - | - | - |
| 1777438812 | 15° C | 24% | 1017.4 hPa | 0 mm | - | - | - |
| 1777438512 | 15° C | 23% | 1017.6 hPa | 0 mm | - | - | - |
| 1777438211 | 15° C | 23% | 1017.6 hPa | 0 mm | - | - | - |
| 1777437912 | 15° C | 22% | 1017.6 hPa | 0 mm | - | - | - |
| 1777437611 | 15° C | 24% | 1017.7 hPa | 0 mm | - | - | - |
| 1777437312 | 15° C | 24% | 1017.7 hPa | 0 mm | - | - | - |
| 1777437012 | 15° C | 25% | 1017.8 hPa | 0 mm | - | - | - |
| 1777436712 | 15° C | 25% | 1018 hPa | 0 mm | - | - | - |
| 1777436411 | 15° C | 24% | 1018 hPa | 0 mm | - | - | - |
| 1777436112 | 15° C | 25% | 1018.2 hPa | 0 mm | - | - | - |
| 1777435812 | 15° C | 26% | 1018.3 hPa | 0 mm | - | - | - |
| 1777435511 | 15° C | 28% | 1018.5 hPa | 0 mm | - | - | - |
| 1777435211 | 15° C | 28% | 1018.5 hPa | 0 mm | - | - | - |
| 1777434911 | 15° C | 29% | 1018.5 hPa | 0 mm | - | - | - |
| 1777434612 | 15° C | 29% | 1018.6 hPa | 0 mm | - | - | - |
| 1777434312 | 15° C | 29% | 1018.7 hPa | 0 mm | - | - | - |
| 1777434011 | 15° C | 30% | 1018.7 hPa | 0 mm | - | - | - |
| 1777433711 | 15° C | 32% | 1018.7 hPa | 0 mm | - | - | - |
* Rain latest hour (hover to see other rain measurements)
** Current wind speed in m/s (hover to see current wind gust speed)